Weather History for Selawik, AK

Change the Weather History Date:

Thursday, March 7, 2013

  Actual Average Record
Temperature  
Mean Temperature 22 °F -  
Max Temperature 26 °F 3 °F 26 °F (2013)
Min Temperature 17 °F -5 °F -34 °F (2007)
Degree Days  
Heating Degree Days 44    
Moisture  
Dew Point 18 °F    
Average Humidity 83    
Maximum Humidity 93    
Minimum Humidity 69    
Precipitation  
Precipitation 0.00 in - - ()
Sea Level Pressure  
Sea Level Pressure 29.53 in    
Wind  
Wind Speed 20 mph (ENE)    
Max Wind Speed 31 mph    
Max Gust Speed 36 mph    
Visibility 7 miles    
Events      
Averages and records for this station are not official NWS values.
T = Trace of Precipitation, MM = Missing Value Source: NWS Daily Summary

Daily Weather History Graph

Daily Weather History Graph

Search for Another Location

Airport:

Trip Planner

Search our weather history database for the weather conditions in past years. The results will help you decide how hot, cold, wet, or windy it might be!

Date:

Astronomy

Mar. 07, 2013 Rise Set
Actual Time 8:29 AM AKST 7:14 PM AKST
Civil Twilight 7:36 AM AKST 8:06 PM AKST
Nautical Twilight 6:35 AM AKST 9:08 PM AKST
Astronomical Twilight 5:30 AM AKST 10:14 PM AKST
Moon 7:15 AM AKST (3/7) 1:43 PM AKST (3/7)
Length of Visible Light 12h 29m
Length of Day
10h 45m
Waning Crescent, 19% of the Moon is Illuminated
Mar 7
Waning Crescent
Mar 11
New
Mar 19
First Quarter
Mar 27
Full
Apr 2
Last Quarter

Hourly Weather History & Observations

Time (AKST) Temp. Windchill Dew Point Humidity Pressure Visibility Wind Dir Wind Speed Gust Speed Precip Events Conditions
12:16 AM 19.4 °F 4.1 °F 17.6 °F 93% 29.81 in 10.0 mi ENE 18.4 mph - N/A   Overcast
12:36 AM 19.4 °F 5.5 °F 17.6 °F 93% 29.81 in 10.0 mi ENE 15.0 mph - N/A   Overcast
12:56 AM 19.4 °F 5.5 °F 17.6 °F 93% 29.80 in 10.0 mi ENE 15.0 mph - N/A   Overcast
1:16 AM 19.4 °F 4.5 °F 15.8 °F 86% 29.80 in 10.0 mi ENE 17.3 mph - N/A   Overcast
1:36 AM 19.4 °F 3.2 °F 15.8 °F 86% 29.79 in 10.0 mi ENE 20.7 mph - N/A   Overcast
1:56 AM 19.4 °F 3.6 °F 17.6 °F 93% 29.79 in 10.0 mi ENE 19.6 mph - N/A   Overcast
2:16 AM 19.4 °F 4.1 °F 17.6 °F 93% 29.78 in 10.0 mi ENE 18.4 mph - N/A   Overcast
2:36 AM 19.4 °F 4.1 °F 17.6 °F 93% 29.78 in 10.0 mi ENE 18.4 mph - N/A   Overcast
2:56 AM 19.4 °F 4.5 °F 17.6 °F 93% 29.78 in 10.0 mi ENE 17.3 mph - N/A   Overcast
3:16 AM 19.4 °F 4.5 °F 17.6 °F 93% 29.77 in 10.0 mi ENE 17.3 mph - N/A   Overcast
3:36 AM 19.4 °F 4.5 °F 15.8 °F 86% 29.76 in 10.0 mi ENE 17.3 mph - N/A   Overcast
3:56 AM 19.4 °F 4.5 °F 15.8 °F 86% 29.75 in 10.0 mi ENE 17.3 mph - N/A   Overcast
4:16 AM 19.4 °F 4.5 °F 15.8 °F 86% 29.74 in 10.0 mi ENE 17.3 mph - N/A   Overcast
4:36 AM 19.4 °F 4.1 °F 15.8 °F 86% 29.74 in 10.0 mi ENE 18.4 mph - N/A   Overcast
4:56 AM 19.4 °F 4.5 °F 15.8 °F 86% 29.73 in 10.0 mi ENE 17.3 mph - N/A   Overcast
5:16 AM 19.4 °F 4.5 °F 14.0 °F 80% 29.71 in 10.0 mi ENE 17.3 mph - N/A   Overcast
5:36 AM 17.6 °F 2.2 °F 15.8 °F 93% 29.70 in 10.0 mi NE 17.3 mph - N/A   Overcast
5:56 AM 19.4 °F 4.5 °F 15.8 °F 86% 29.68 in 10.0 mi NE 17.3 mph - N/A   Overcast
6:16 AM 19.4 °F 3.6 °F 15.8 °F 86% 29.67 in 10.0 mi NE 19.6 mph - N/A   Overcast
6:36 AM 19.4 °F 3.6 °F 15.8 °F 86% 29.66 in 10.0 mi ENE 19.6 mph - N/A   Overcast
6:56 AM 19.4 °F 4.1 °F 15.8 °F 86% 29.65 in 10.0 mi ENE 18.4 mph - N/A   Overcast
7:16 AM 17.6 °F 1.7 °F 14.0 °F 86% 29.64 in 10.0 mi ENE 18.4 mph - N/A   Scattered Clouds
7:36 AM 19.4 °F 5.0 °F 14.0 °F 80% 29.64 in 10.0 mi ENE 16.1 mph - N/A   Mostly Cloudy
7:56 AM 19.4 °F 3.2 °F 14.0 °F 80% 29.62 in 10.0 mi ENE 20.7 mph - N/A   Overcast
8:16 AM 19.4 °F 2.5 °F 14.0 °F 80% 29.60 in 10.0 mi ENE 23.0 mph - N/A   Mostly Cloudy
8:36 AM 19.4 °F 3.6 °F 15.8 °F 86% 29.60 in 10.0 mi ENE 19.6 mph - N/A   Clear
8:56 AM 21.2 °F 5.2 °F 15.8 °F 80% 29.59 in 10.0 mi ENE 21.9 mph - N/A   Mostly Cloudy
9:16 AM 21.2 °F 4.2 °F 15.8 °F 80% 29.57 in 9.0 mi ENE 25.3 mph - N/A   Overcast
9:36 AM 21.2 °F 4.9 °F 17.6 °F 86% 29.55 in 10.0 mi ENE 23.0 mph - N/A   Overcast
9:56 AM 21.2 °F 4.9 °F 17.6 °F 86% 29.54 in 10.0 mi ENE 23.0 mph - N/A   Mostly Cloudy
10:16 AM 21.2 °F 4.9 °F 17.6 °F 86% 29.55 in 10.0 mi ENE 23.0 mph - N/A   Partly Cloudy
10:36 AM 21.2 °F 5.2 °F 17.6 °F 86% 29.54 in 10.0 mi ENE 21.9 mph - N/A   Mostly Cloudy
10:56 AM 23.0 °F 6.9 °F 17.6 °F 80% 29.54 in 10.0 mi ENE 24.2 mph 29.9 mph N/A   Overcast
11:16 AM 24.8 °F 7.6 °F 19.4 °F 80% 29.51 in 3.0 mi ENE 31.1 mph 35.7 mph N/A   Overcast
11:36 AM 24.8 °F 8.4 °F 19.4 °F 80% 29.49 in 3.0 mi ENE 27.6 mph 32.2 mph N/A   Overcast
11:56 AM 24.8 °F 7.9 °F 19.4 °F 80% 29.48 in 3.0 mi ENE 29.9 mph 34.5 mph N/A   Overcast
12:16 PM 24.8 °F 8.7 °F 19.4 °F 80% 29.47 in 3.0 mi ENE 26.5 mph - N/A   Mostly Cloudy
12:36 PM 24.8 °F 10.3 °F 19.4 °F 80% 29.47 in 10.0 mi ENE 20.7 mph - N/A   Partly Cloudy
12:56 PM 24.8 °F 10.7 °F 17.6 °F 74% 29.46 in 10.0 mi ENE 19.6 mph - N/A   Scattered Clouds
1:16 PM 24.8 °F 10.0 °F 17.6 °F 74% 29.45 in 10.0 mi ENE 21.9 mph - N/A   Mostly Cloudy
1:36 PM 24.8 °F 9.0 °F 17.6 °F 74% 29.44 in 10.0 mi ENE 25.3 mph - N/A   Overcast
1:56 PM 24.8 °F 9.0 °F 17.6 °F 74% 29.42 in 10.0 mi ENE 25.3 mph - N/A   Overcast
2:16 PM 24.8 °F 8.4 °F 19.4 °F 80% 29.40 in 8.0 mi ENE 27.6 mph - N/A   Overcast
2:36 PM 24.8 °F 8.4 °F 19.4 °F 80% 29.39 in 5.0 mi ENE 27.6 mph - N/A   Overcast
2:56 PM 24.8 °F 9.0 °F 19.4 °F 80% 29.38 in 4.0 mi East 25.3 mph - N/A   Overcast
3:16 PM 24.8 °F 9.3 °F 19.4 °F 80% 29.38 in 10.0 mi ENE 24.2 mph - N/A   Overcast
3:36 PM 24.8 °F 9.3 °F 19.4 °F 80% 29.38 in 10.0 mi ENE 24.2 mph - N/A   Overcast
3:56 PM 24.8 °F 9.3 °F 19.4 °F 80% 29.38 in 10.0 mi East 24.2 mph - N/A   Overcast
4:16 PM 26.6 °F 12.7 °F 19.4 °F 74% 29.38 in 10.0 mi ENE 20.7 mph - N/A   Overcast
4:36 PM 26.6 °F 13.4 °F 19.4 °F 74% 29.38 in 10.0 mi ENE 18.4 mph - N/A   Overcast
4:56 PM 26.6 °F 12.7 °F 17.6 °F 69% 29.36 in 10.0 mi ENE 20.7 mph - N/A   Overcast
5:16 PM 26.6 °F 11.4 °F 19.4 °F 74% 29.37 in 10.0 mi ENE 25.3 mph - N/A   Overcast
5:36 PM 26.6 °F 12.0 °F 19.4 °F 74% 29.38 in 10.0 mi East 23.0 mph - N/A   Mostly Cloudy
5:56 PM 24.8 °F 10.0 °F 19.4 °F 80% 29.37 in 1.0 mi East 21.9 mph - N/A   Overcast
6:16 PM 24.8 °F 10.3 °F 21.2 °F 86% 29.36 in 0.5 mi East 20.7 mph - N/A   Overcast
6:36 PM 24.8 °F 11.1 °F 21.2 °F 86% 29.36 in 0.2 mi East 18.4 mph - N/A   Overcast
6:56 PM 24.8 °F 11.5 °F 21.2 °F 86% 29.36 in 0.2 mi East 17.3 mph - N/A   Overcast
7:16 PM 24.8 °F 10.7 °F 21.2 °F 86% 29.36 in 0.2 mi East 19.6 mph - N/A   Overcast
7:36 PM 24.8 °F 10.7 °F 21.2 °F 86% 29.37 in 0.5 mi East 19.6 mph - N/A   Overcast
7:56 PM 24.8 °F 11.9 °F 21.2 °F 86% 29.37 in 0.5 mi ENE 16.1 mph - N/A   Overcast
8:16 PM 24.8 °F 10.0 °F 21.2 °F 86% 29.36 in 0.5 mi ENE 21.9 mph - N/A   Overcast
8:36 PM 24.8 °F 9.3 °F 21.2 °F 86% 29.37 in 1.0 mi East 24.2 mph - N/A   Overcast
8:56 PM 24.8 °F 10.0 °F 19.4 °F 80% 29.36 in 2.0 mi East 21.9 mph - N/A   Overcast
9:16 PM 24.8 °F 11.1 °F 19.4 °F 80% 29.36 in 1.5 mi ENE 18.4 mph - N/A   Overcast
9:36 PM 24.8 °F 11.1 °F 19.4 °F 80% 29.38 in 1.2 mi East 18.4 mph - N/A   Mostly Cloudy
9:56 PM 24.8 °F 11.1 °F 19.4 °F 80% 29.37 in 1.0 mi East 18.4 mph - N/A   Mostly Cloudy
10:16 PM 24.8 °F 11.5 °F 21.2 °F 86% 29.37 in 0.8 mi East 17.3 mph - N/A   Unknown
10:36 PM 24.8 °F 9.3 °F 21.2 °F 86% 29.37 in 1.0 mi East 24.2 mph - N/A   Clear
10:56 PM 24.8 °F 10.3 °F 21.2 °F 86% 29.38 in 1.5 mi East 20.7 mph - N/A   Overcast
11:16 PM 24.8 °F 10.3 °F 21.2 °F 86% 29.38 in 1.5 mi East 20.7 mph - N/A   Overcast
11:36 PM 24.8 °F 10.7 °F 19.4 °F 80% 29.38 in 1.5 mi ENE 19.6 mph - N/A   Overcast
11:56 PM 24.8 °F 11.9 °F 21.2 °F 86% 29.37 in 3.0 mi ENE 16.1 mph - N/A   Overcast